{"data":{"norad_id":53288,"epoch":"2026-05-24T13:46:18.849792Z","epoch_age_seconds":105643,"freshness":"FRESH","line1":"1 53288U 22086AY  26144.57382928 -.00000378  00000+0 -56857-5 0  9990","line2":"2 53288  53.2137 203.4643 0001383  98.1268 261.9881 15.08837604212642","mean_motion":15.08837604,"eccentricity":0.0001383,"inclination_deg":53.2137,"raan_deg":203.4643,"arg_perigee_deg":98.1268,"mean_anomaly_deg":261.9881,"bstar":-5.6857e-6,"rev_number":21264,"period_min":95.437706230445,"perigee_km":538.79396871661,"apogee_km":540.70745645791,"semimajor_km":6917.8877125873,"source":"CELESTRAK","updated_at":"2026-05-25T13:38:17.390670Z"}}